CYCD

Nanaimo Airport

Nanaimo, British Columbia, Canada
Issued Wind Visibility Ceiling Temperature Dew Point Humidity Barometer
Sep-23
01:00 UTC
160°
5 KTS
30 miles Broken
18,000' AGL
18° C
64° F
C
43° F
46% 30" Hg
1016 hPa
VFR
Sep-23
00:00 UTC
150°
6 KTS
30 miles Broken
13,000' AGL
19° C
66° F
C
45° F
46% 30.01" Hg
1016.3 hPa
VFR
Sep-22
23:00 UTC
180°
3 KTS
30 miles Overcast
18,000' AGL
19° C
66° F
C
43° F
43% 30.01" Hg
1016.3 hPa
VFR
Sep-22
22:00 UTC
050°
3 KTS
30 miles Broken
18,000' AGL
19° C
66° F
C
41° F
40% 30.01" Hg
1016.6 hPa
VFR
Sep-22
21:00 UTC
020°
7 KTS
30 miles Broken
25,000' AGL
20° C
68° F
C
41° F
38% 30.03" Hg
1017 hPa
VFR
Sep-22
20:00 UTC
020°
6 KTS
30 miles Broken
25,000' AGL
20° C
68° F
C
43° F
40% 30.04" Hg
1017.3 hPa
VFR
Sep-22
19:00 UTC
360°
9 KTS
30 miles Broken
25,000' AGL
19° C
66° F
C
45° F
46% 30.04" Hg
1017.5 hPa
VFR
Sep-22
18:00 UTC
040°
3 KTS
30 miles   18° C
64° F
C
43° F
46% 30.06" Hg
1018 hPa
VFR
Sep-22
17:00 UTC
070°
2 KTS
30 miles   15° C
59° F
C
43° F
55% 30.07" Hg
1018.3 hPa
VFR
Sep-22
16:00 UTC
280°
3 KTS
30 miles   13° C
55° F
C
41° F
59% 30.08" Hg
1018.7 hPa
VFR
Sep-22
15:00 UTC
30 miles   C
46° F
C
41° F
82% 30.07" Hg
1018.4 hPa
VFR
Sep-22
14:00 UTC
210°
2 KTS
30 miles   C
43° F
C
41° F
93% 30.05" Hg
1017.9 hPa
VFR
Sep-22
13:00 UTC
30 miles   C
43° F
C
39° F
87% 30.05" Hg
1017.7 hPa
VFR
Sep-22
04:00 UTC
030°
3 KTS
20 miles Broken
9,500' AGL
13° C
55° F
C
48° F
77% 29.99" Hg
1015.6 hPa
VFR
Sep-22
03:00 UTC
30 miles Broken
9,600' AGL
14° C
57° F
C
48° F
72% 29.99" Hg
1015.6 hPa
VFR